Location: ??????
(38.0131°N, 23.7723°E)
Time: 05:49:04
(UTC+00:00)

Cosmos 2098 - Pass Details

Date: 17 October 2021
Orbit: 389 x 1581 km, 82.9° (Epoch: 28 November)

Event Time Altitude Azimuth Distance (km) Brightness Sun altitude
Rises 16:24:41 0° 187° (S) 2,392 8.2 -8.7°
Reaches altitude 10° 16:26:46 10° 188° (S) 1,464 7.2 -9.1°
Maximum altitude 16:29:49 83° 275° (W) 398 4.2 -9.7°
Drops below altitude 10° 16:32:50 10° 5° (N) 1,444 6.9 -10.3°
Sets 16:34:52 0° 6° (N) 2,355 7.9 -10.7°
